This is the latest recevied weather packets stored in our database for station/object NK7I. If no packets are shown the sender has not sent any weather packets the latest 1 day(s).
| Time | Temp. | Humidity | Pressure | Rain* | Wind** | Luminosity | Snow |
|---|---|---|---|---|---|---|---|
| 1778023883 | 23.33° C | 29% | 1010.4 hPa | 0 mm | 0.89 m/s, 271° | 737 W/m² | - |
| 1778023582 | 23.33° C | 30% | 1010.7 hPa | 0 mm | 0.45 m/s, 303° | 758 W/m² | - |
| 1778023282 | 23.33° C | 29% | 1010.5 hPa | 0 mm | 0.45 m/s, 286° | 780 W/m² | - |
| 1778022983 | 22.78° C | 29% | 1010.6 hPa | 0 mm | 0.89 m/s, 270° | 798 W/m² | - |
| 1778022683 | 22.78° C | 31% | 1010.7 hPa | 0 mm | 0.45 m/s, 46° | 819 W/m² | - |
| 1778022383 | 22.78° C | 33% | 1010.8 hPa | 0 mm | 0.89 m/s, 54° | 842 W/m² | - |
| 1778022082 | 22.78° C | 32% | 1010.8 hPa | 0 mm | 0.89 m/s, 45° | 856 W/m² | - |
| 1778021782 | 22.22° C | 30% | 1010.9 hPa | 0 mm | 0.45 m/s, 45° | 881 W/m² | - |
| 1778021483 | 22.22° C | 27% | 1010.9 hPa | 0 mm | 0.89 m/s, 38° | 895 W/m² | - |
| 1778021182 | 22.22° C | 35% | 1010.9 hPa | 0 mm | 0.89 m/s, 40° | 912 W/m² | - |
| 1778020882 | 22.22° C | 29% | 1010.9 hPa | 0 mm | 0.45 m/s, 2° | 932 W/m² | - |
| 1778020582 | 21.67° C | 33% | 1011 hPa | 0 mm | 2.24 m/s, 58° | 949 W/m² | - |
| 1778020282 | 22.22° C | 34% | 1011.1 hPa | 0 mm | 1.79 m/s, 56° | 967 W/m² | - |
| 1778019982 | 22.22° C | 34% | 1011.1 hPa | 0 mm | 1.34 m/s, 35° | 984 W/m² | - |
| 1778019683 | 22.22° C | 33% | 1011.1 hPa | 0 mm | 1.34 m/s, 45° | 998 W/m² | - |
| 1778019382 | 22.22° C | 30% | 1011.2 hPa | 0 mm | 1.34 m/s, 58° | 1016 W/m² | - |
| 1778019083 | 22.22° C | 30% | 1011.3 hPa | 0 mm | 0.89 m/s, 39° | 1034 W/m² | - |
| 1778018782 | 21.67° C | 38% | 1011.3 hPa | 0 mm | 1.34 m/s, 59° | 1048 W/m² | - |
| 1778018482 | 21.67° C | 32% | 1011.4 hPa | 0 mm | 1.34 m/s, 49° | 1067 W/m² | - |
| 1778018182 | 21.67° C | 36% | 1011.4 hPa | 0 mm | 0.89 m/s, 55° | 1083 W/m² | - |
| 1778017882 | 21.11° C | 28% | 1011.4 hPa | 0 mm | 1.34 m/s, 65° | 1099 W/m² | - |
| 1778017582 | 21.11° C | 33% | 1011.6 hPa | 0 mm | 1.79 m/s, 62° | 1111 W/m² | - |
| 1778017282 | 21.11° C | 34% | 1011.6 hPa | 0 mm | 0.89 m/s, 52° | 1121 W/m² | - |
| 1778016982 | 21.11° C | 29% | 1011.6 hPa | 0 mm | 1.34 m/s, 77° | 1132 W/m² | - |
| 1778016682 | 21.11° C | 29% | 1011.7 hPa | 0 mm | 1.34 m/s, 65° | 1146 W/m² | - |
* Rain latest hour (hover to see other rain measurements)
** Current wind speed in m/s (hover to see current wind gust speed)